CW6666 Weather Reports


Display with metric or nautical units.
time (UTC)temp
F
wind
direction
speed
MPH
gust
MPH
rain 1hr
in
rain 24hr
in
rain mn
in
humidity
%
barometer
mb
20170423052605 84 100 12.0 15.0 0.00 0.04 0.00 82 1007.0
20170423052105 84 107 10.0 16.0 0.00 0.04 0.00 81 1007.0
20170423051605 84 92 11.0 17.0 0.00 0.04 0.00 81 1007.0
20170423051105 84 113 12.0 17.0 0.00 0.04 0.00 82 1007.0
20170423050606 84 94 14.0 16.0 0.00 0.04 0.00 82 1007.0
20170423050106 85 97 12.0 16.0 0.00 0.04 0.00 83 1007.0
20170423045605 85 104 12.0 16.0 0.00 0.04 0.00 82 1006.9
20170423045105 85 139 11.0 15.0 0.00 0.04 0.00 82 1006.9
20170423044605 85 88 7.0 15.0 0.00 0.04 0.00 81 1006.9
20170423044105 85 90 10.0 15.0 0.00 0.04 0.00 80 1006.8
20170423043605 85 115 13.0 13.0 0.00 0.04 0.00 79 1006.8
20170423043105 85 115 8.0 14.0 0.00 0.04 0.00 80 1006.8
20170423042606 85 102 11.0 14.0 0.00 0.04 0.00 79 1006.7
20170423042105 85 96 11.0 16.0 0.00 0.04 0.00 79 1006.7
20170423041605 86 93 12.0 16.0 0.00 0.04 0.00 79 1006.7
20170423041105 85 102 10.0 16.0 0.00 0.04 0.00 80 1006.7
20170423040605 85 107 9.0 14.0 0.00 0.04 0.00 81 1006.7
20170423040106 85 90 11.0 16.0 0.00 0.04 0.00 80 1006.7
20170423035605 85 123 6.0 16.0 0.00 0.04 0.00 81 1006.8
20170423035105 85 92 15.0 16.0 0.00 0.04 0.00 80 1006.8
20170423034605 85 84 8.0 16.0 0.00 0.04 0.00 80 1006.8
20170423034105 86 90 13.0 16.0 0.00 0.04 0.00 81 1007.1
20170423033605 86 82 13.0 16.0 0.00 0.04 0.00 81 1007.1
20170423033105 86 96 14.0 17.0 0.00 0.04 0.00 81 1007.1
20170423032605 86 92 14.0 17.0 0.00 0.04 0.00 80 1007.2
20170423032105 86 89 15.0 18.0 0.00 0.04 0.00 79 1007.2
20170423031605 86 89 14.0 18.0 0.00 0.04 0.00 80 1007.2
20170423031105 86 87 16.0 18.0 0.00 0.04 0.00 80 1007.3
20170423030605 86 94 15.0 19.0 0.00 0.04 0.00 81 1007.3
20170423030105 86 88 14.0 19.0 0.00 0.04 0.00 81 1007.3
20170423025606 86 96 12.0 17.0 0.00 0.04 0.00 81 1007.5
20170423025105 86 86 15.0 17.0 0.00 0.04 0.00 79 1007.5
20170423024606 86 97 12.0 15.0 0.00 0.04 0.00 81 1007.5
20170423024105 86 98 9.0 15.0 0.00 0.04 0.00 81 1007.7
20170423023605 86 101 13.0 16.0 0.00 0.04 0.00 82 1007.7
20170423023105 86 96 13.0 18.0 0.00 0.04 0.00 80 1007.7
20170423022605 86 99 15.0 18.0 0.00 0.04 0.00 81 1007.7
20170423022105 86 83 14.0 17.0 0.00 0.04 0.00 82 1007.7
20170423021605 85 90 16.0 17.0 0.00 0.04 0.00 82 1007.7
20170423021105 85 92 12.0 17.0 0.00 0.04 0.00 84 1008.0
20170423020605 85 86 16.0 17.0 0.00 0.04 0.00 84 1008.0
20170423020105 85 82 13.0 17.0 0.00 0.04 0.00 84 1008.0
20170423015605 84 90 14.0 17.0 0.00 0.04 0.00 86 1008.2
20170423015105 84 111 14.0 18.0 0.00 0.04 0.00 86 1008.2
20170423014605 83 98 16.0 18.0 0.00 0.04 0.00 88 1008.2
20170423014106 83 84 15.0 17.0 0.00 0.04 0.00 87 1008.2
20170423013605 84 86 14.0 17.0 0.00 0.04 0.00 86 1008.2
20170423013105 84 83 13.0 17.0 0.00 0.04 0.00 85 1008.2
20170423012605 84 93 13.0 17.0 0.00 0.04 0.00 86 1008.4
20170423012105 84 86 12.0 17.0 0.00 0.04 0.00 86 1008.4
20170423011605 83 94 17.0 18.0 0.00 0.04 0.00 85 1008.4
20170423011105 83 88 12.0 19.0 0.00 0.04 0.00 86 1008.7
20170423010605 83 81 14.0 19.0 0.00 0.04 0.00 85 1008.7
20170423010105 83 87 18.0 19.0 0.00 0.04 0.00 86 1008.7
20170423005605 83 94 15.0 21.0 0.00 0.04 0.00 87 1008.7
20170423005106 83 86 16.0 21.0 0.00 0.04 0.00 90 1008.7
20170423004605 82 71 16.0 20.0 0.00 0.04 0.00 90 1008.7
20170423004105 82 85 15.0 20.0 0.00 0.04 0.00 89 1008.8
20170423003605 83 90 18.0 19.0 0.00 0.04 0.00 89 1008.8
20170423003105 83 86 19.0 19.0 0.00 0.04 0.00 89 1008.8
20170423002605 82 80 16.0 21.0 0.00 0.04 0.00 89 1009.1
20170423002105 82 87 18.0 21.0 0.00 0.04 0.00 88 1009.1
20170423001606 82 76 18.0 21.0 0.00 0.04 0.00 89 1009.1
20170423001106 82 98 16.0 20.0 0.00 0.04 0.00 89 1009.2
20170423000605 82 87 15.0 20.0 0.00 0.04 0.00 89 1009.2
20170423000105 82 90 14.0 20.0 0.00 0.04 0.00 89 1009.2
20170422235605 81 96 13.0 19.0 0.00 0.04 0.00 88 1009.3
20170422235105 81 103 17.0 22.0 0.00 0.04 0.00 89 1009.3
20170422234605 82 92 15.0 23.0 0.00 0.04 0.00 89 1009.3
20170422234105 83 109 16.0 23.0 0.00 0.04 0.00 87 1009.2
20170422233605 83 76 18.0 20.0 0.00 0.04 0.00 89 1009.2
20170422233105 83 78 18.0 20.0 0.00 0.04 0.00 88 1009.2
20170422232605 84 72 15.0 20.0 0.00 0.04 0.00 88 1009.2
20170422232105 84 76 16.0 18.0 0.00 0.04 0.00 89 1009.2
20170422231605 84 76 13.0 17.0 0.00 0.04 0.00 88 1009.2
20170422231105 84 76 15.0 18.0 0.00 0.04 0.00 88 1009.2
20170422230605 84 86 16.0 19.0 0.00 0.04 0.00 87 1009.2
20170422230105 84 90 13.0 20.0 0.00 0.05 0.00 86 1009.2
20170422225605 84 72 18.0 20.0 0.00 0.05 0.00 86 1009.2
20170422225105 85 101 12.0 18.0 0.00 0.05 0.00 85 1009.2
20170422224605 84 86 13.0 18.0 0.00 0.05 0.00 84 1009.2
20170422224105 84 91 14.0 18.0 0.00 0.05 0.00 83 1008.9
20170422223605 85 94 16.0 18.0 0.00 0.05 0.00 83 1008.9
20170422223105 85 94 13.0 18.0 0.00 0.05 0.00 85 1008.9
20170422222605 84 94 16.0 18.0 0.00 0.05 0.00 86 1008.7
20170422222105 84 94 15.0 18.0 0.00 0.05 0.00 86 1008.7
20170422221606 84 81 17.0 17.0 0.00 0.05 0.00 86 1008.7
20170422221105 84 99 12.0 16.0 0.00 0.05 0.00 85 1008.5
20170422220605 84 88 11.0 16.0 0.00 0.05 0.00 84 1008.5
20170422220105 83 96 14.0 15.0 0.00 0.05 0.00 84 1008.5
20170422215605 83 92 13.0 16.0 0.00 0.05 0.00 87 1008.2
20170422215105 83 94 11.0 17.0 0.00 0.05 0.00 88 1008.2
20170422214605 83 78 16.0 17.0 0.00 0.05 0.00 87 1008.2
20170422214105 83 77 11.0 16.0 0.00 0.05 0.00 88 1008.0
20170422213605 83 77 11.0 16.0 0.00 0.05 0.00 88 1008.0
20170422213105 83 92 11.0 16.0 0.00 0.05 0.00 88 1008.0
20170422212605 83 95 12.0 15.0 0.00 0.05 0.00 88 1007.7
20170422212105 83 94 9.0 15.0 0.00 0.05 0.00 88 1007.7
20170422211605 83 85 14.0 16.0 0.00 0.05 0.00 88 1007.7
20170422211105 83 85 12.0 16.0 0.00 0.05 0.00 88 1007.3
20170422210605 83 82 13.0 15.0 0.00 0.05 0.00 88 1007.3
20170422210105 83 84 10.0 15.0 0.00 0.05 0.00 88 1007.3
20170422205605 83 95 12.0 14.0 0.00 0.05 0.00 89 1007.2
20170422205105 82 95 12.0 14.0 0.00 0.05 0.00 89 1007.2
20170422204605 82 87 11.0 14.0 0.00 0.05 0.00 89 1007.2
20170422204105 82 84 12.0 15.0 0.00 0.05 0.00 89 1007.2
20170422203605 83 78 13.0 15.0 0.00 0.05 0.00 89 1007.2
20170422203105 82 86 13.0 14.0 0.00 0.05 0.00 89 1007.2
20170422202605 82 86 12.0 14.0 0.00 0.05 0.00 88 1007.0
20170422202105 82 92 13.0 14.0 0.00 0.05 0.00 88 1007.0
20170422201605 82 87 11.0 13.0 0.00 0.05 0.00 88 1007.0
20170422201105 82 98 12.0 14.0 0.00 0.05 0.00 88 1006.9
20170422200605 82 90 7.0 14.0 0.00 0.05 0.00 88 1006.9
20170422200105 82 103 10.0 14.0 0.00 0.05 0.00 89 1006.9
20170422195605 82 91 9.0 16.0 0.00 0.05 0.00 89 1006.8
20170422195105 82 86 11.0 16.0 0.00 0.05 0.00 89 1006.8
20170422194605 82 94 13.0 16.0 0.00 0.05 0.00 89 1006.8
20170422194105 82 112 11.0 18.0 0.00 0.06 0.00 89 1006.7
20170422193605 83 98 13.0 18.0 0.00 0.06 0.00 89 1006.7
20170422193105 83 94 10.0 16.0 0.00 0.06 0.00 89 1006.7
20170422192605 82 83 14.0 17.0 0.00 0.06 0.00 88 1006.6
20170422192105 82 88 14.0 17.0 0.00 0.06 0.00 89 1006.6
20170422191605 82 86 11.0 16.0 0.00 0.06 0.00 89 1006.6
20170422191105 82 94 11.0 16.0 0.00 0.06 0.00 89 1006.6
20170422190605 82 94 14.0 16.0 0.00 0.06 0.00 89 1006.6
20170422190105 82 89 14.0 15.0 0.00 0.06 0.00 90 1006.6
20170422185605 82 76 14.0 15.0 0.00 0.06 0.00 90 1006.5
20170422185105 82 76 10.0 14.0 0.00 0.06 0.00 91 1006.5
20170422184605 81 65 11.0 14.0 0.00 0.06 0.00 91 1006.5
20170422184105 81 67 13.0 15.0 0.00 0.06 0.00 91 1006.3
20170422183605 81 74 12.0 17.0 0.00 0.06 0.00 91 1006.3
20170422183105 81 72 14.0 20.0 0.00 0.06 0.00 91 1006.3
20170422182605 82 69 16.0 20.0 0.00 0.06 0.00 90 1006.2
20170422182105 82 87 16.0 17.0 0.00 0.06 0.00 90 1006.2
20170422181605 82 105 13.0 17.0 0.00 0.06 0.00 89 1006.2
20170422181105 82 82 13.0 16.0 0.00 0.06 0.00 89 1006.0
20170422180605 82 79 13.0 16.0 0.00 0.06 0.00 89 1006.0
20170422180105 82 90 13.0 16.0 0.00 0.06 0.00 89 1006.0
20170422175605 82 84 15.0 15.0 0.00 0.06 0.00 90 1005.9
20170422175105 82 80 12.0 15.0 0.00 0.06 0.00 90 1005.9
20170422174605 82 70 13.0 14.0 0.00 0.06 0.00 90 1005.9
20170422174105 82 74 11.0 12.0 0.00 0.06 0.00 90 1006.1
20170422173605 82 82 10.0 13.0 0.00 0.06 0.00 89 1006.1
20170422173105 82 74 10.0 14.0 0.00 0.06 0.00 89 1006.1
20170422172605 82 68 9.0 15.0 0.00 0.06 0.00 89 1006.3
20170422172105 82 72 12.0 15.0 0.00 0.06 0.00 88 1006.3
20170422171605 82 76 13.0 15.0 0.00 0.06 0.00 89 1006.3
20170422171105 82 90 10.0 15.0 0.00 0.06 0.00 88 1006.6
20170422170605 82 82 13.0 17.0 0.00 0.06 0.00 89 1006.6
20170422170105 82 78 13.0 17.0 0.00 0.06 0.00 89 1006.6
20170422165605 82 86 11.0 16.0 0.00 0.06 0.00 89 1006.7
20170422165105 82 86 15.0 16.0 0.00 0.06 0.00 89 1006.7
20170422164605 82 72 16.0 16.0 0.00 0.06 0.00 89 1006.7
20170422164105 82 68 13.0 16.0 0.00 0.06 0.00 90 1006.7
20170422163605 82 77 10.0 17.0 0.00 0.06 0.00 89 1006.7
20170422163105 83 71 15.0 17.0 0.00 0.06 0.00 89 1006.7
20170422162605 83 70 14.0 16.0 0.00 0.06 0.00 89 1006.7
20170422162105 83 73 13.0 17.0 0.00 0.06 0.00 89 1006.7
20170422161605 83 67 13.0 17.0 0.00 0.06 0.00 89 1006.7
20170422161105 83 77 15.0 16.0 0.00 0.06 0.00 89 1006.8
20170422160535 83 78 14.0 16.0 0.00 0.06 0.00 89 1006.8
20170422160105 82 90 13.0 16.0 0.00 0.06 0.00 89 1006.8
20170422155605 83 78 12.0 18.0 0.00 0.06 0.00 89 1007.1
20170422155105 83 72 13.0 19.0 0.00 0.06 0.00 89 1007.1
20170422154605 83 67 15.0 19.0 0.00 0.06 0.00 89 1007.1
20170422154105 82 59 15.0 18.0 0.00 0.06 0.00 90 1007.1
20170422153605 82 71 14.0 18.0 0.00 0.06 0.00 91 1007.1
20170422153105 82 74 12.0 15.0 0.00 0.06 0.00 91 1007.1
20170422152605 82 67 11.0 14.0 0.00 0.06 0.00 91 1007.3
20170422152105 82 69 11.0 15.0 0.00 0.07 0.00 91 1007.3
20170422151535 82 71 11.0 15.0 0.00 0.07 0.00 91 1007.3
20170422151105 82 63 12.0 16.0 0.00 0.07 0.00 91 1007.6
20170422150535 81 53 13.0 19.0 0.00 0.07 0.00 90 1007.6
20170422150105 82 60 15.0 19.0 0.00 0.07 0.00 90 1007.6
20170422145605 82 73 16.0 17.0 0.00 0.07 0.00 90 1007.7
20170422145105 83 78 14.0 17.0 0.00 0.07 0.00 88 1007.7
20170422144605 83 77 15.0 19.0 0.00 0.07 0.00 89 1007.7
20170422144105 83 73 13.0 19.0 0.00 0.07 0.00 88 1007.7
20170422143605 83 66 16.0 19.0 0.00 0.07 0.00 88 1007.7
20170422143105 83 77 16.0 19.0 0.00 0.07 0.00 88 1007.7
20170422142605 83 73 14.0 18.0 0.00 0.07 0.00 88 1007.7
20170422142105 82 72 15.0 19.0 0.00 0.07 0.00 89 1007.7
20170422141605 82 68 16.0 19.0 0.00 0.07 0.00 89 1007.7
20170422141105 82 64 15.0 17.0 0.02 0.07 0.00 91 1007.7
20170422140605 82 60 15.0 17.0 0.03 0.07 0.00 91 1007.7
20170422140105 82 62 14.0 17.0 0.03 0.07 0.00 92 1007.7
20170422135605 81 59 14.0 15.0 0.04 0.07 0.07 92 1008.2
20170422135105 81 40 11.0 14.0 0.04 0.07 0.07 92 1008.2
20170422134605 81 46 12.0 15.0 0.04 0.07 0.07 92 1008.2
20170422134105 81 52 12.0 16.0 0.04 0.07 0.07 92 1008.6
20170422133605 80 41 15.0 18.0 0.04 0.07 0.07 92 1008.6
20170422133105 81 34 14.0 18.0 0.04 0.07 0.07 92 1008.6
20170422132605 81 41 16.0 19.0 0.04 0.07 0.07 92 1008.7
20170422132105 80 59 16.0 23.0 0.04 0.07 0.07 92 1008.7
20170422131605 80 52 18.0 26.0 0.04 0.07 0.07 91 1008.7
20170422131105 81 53 22.0 26.0 0.02 0.05 0.05 90 1008.5
20170422130605 82 49 14.0 17.0 0.01 0.04 0.04 90 1008.5
20170422130105 83 88 14.0 17.0 0.01 0.04 0.04 87 1008.5
20170422125605 83 46 12.0 16.0 0.00 0.03 0.03 89 1008.3
20170422125105 83 34 12.0 16.0 0.00 0.03 0.03 88 1008.3
20170422124605 83 28 13.0 16.0 0.00 0.03 0.03 88 1008.3
20170422124105 83 36 12.0 17.0 0.00 0.03 0.03 88 1008.3
20170422123605 83 44 16.0 17.0 0.00 0.03 0.03 87 1008.3
20170422123105 83 51 14.0 18.0 0.00 0.03 0.03 87 1008.3
20170422122605 83 51 12.0 20.0 0.00 0.03 0.03 87 1008.3
20170422122105 83 50 15.0 22.0 0.00 0.03 0.03 87 1008.3
20170422121605 83 53 18.0 22.0 0.00 0.03 0.03 86 1008.3
20170422121105 84 42 17.0 21.0 0.00 0.03 0.03 86 1008.3
20170422120605 83 46 16.0 21.0 0.00 0.03 0.03 85 1008.3
20170422120105 84 55 19.0 20.0 0.00 0.03 0.03 86 1008.3
20170422115605 83 59 15.0 20.0 0.00 0.03 0.03 85 1008.2
20170422115105 83 55 18.0 20.0 0.00 0.03 0.03 86 1008.2
20170422114605 83 55 19.0 19.0 0.00 0.03 0.03 86 1008.2
20170422114105 83 52 15.0 20.0 0.00 0.03 0.03 86 1008.2
20170422113605 83 62 15.0 20.0 0.00 0.03 0.03 86 1008.2
20170422113105 83 55 18.0 20.0 0.00 0.03 0.03 86 1008.2
20170422112605 83 52 15.0 20.0 0.00 0.03 0.03 87 1008.2
20170422112105 83 45 16.0 19.0 0.00 0.03 0.03 86 1008.2
20170422111605 83 39 17.0 19.0 0.00 0.03 0.03 87 1008.2
20170422111105 83 36 14.0 19.0 0.00 0.03 0.03 87 1008.1
20170422110605 83 42 16.0 20.0 0.00 0.03 0.03 87 1008.1
20170422110105 83 46 18.0 20.0 0.00 0.03 0.03 86 1008.1
20170422105605 83 31 16.0 20.0 0.00 0.03 0.03 86 1008.1
20170422105105 83 37 15.0 20.0 0.00 0.03 0.03 86 1008.1
20170422104605 83 57 14.0 18.0 0.00 0.03 0.03 86 1008.1
20170422104105 83 47 15.0 18.0 0.00 0.03 0.03 86 1008.0
20170422103605 84 55 17.0 19.0 0.00 0.03 0.03 86 1008.0
20170422103105 83 50 18.0 20.0 0.00 0.03 0.03 85 1008.0
20170422102605 83 41 15.0 20.0 0.00 0.03 0.03 85 1007.9
20170422102105 84 43 15.0 18.0 0.00 0.03 0.03 85 1007.9
20170422101605 83 52 14.0 19.0 0.00 0.03 0.03 85 1007.9
20170422101105 83 62 16.0 19.0 0.00 0.03 0.03 84 1007.8
20170422100605 83 45 15.0 19.0 0.00 0.03 0.03 84 1007.8
20170422100105 83 57 16.0 19.0 0.00 0.03 0.03 84 1007.8
20170422095605 84 47 17.0 19.0 0.00 0.03 0.03 85 1007.7
20170422095105 83 44 12.0 19.0 0.00 0.03 0.03 85 1007.7
20170422094605 84 45 17.0 19.0 0.00 0.03 0.03 85 1007.7
20170422094105 84 47 16.0 19.0 0.00 0.03 0.03 85 1007.6
20170422093605 84 56 15.0 17.0 0.00 0.03 0.03 85 1007.6
20170422093105 84 47 15.0 18.0 0.00 0.03 0.03 85 1007.6
20170422092605 83 53 16.0 18.0 0.00 0.03 0.03 84 1007.3
20170422092105 84 46 15.0 17.0 0.00 0.03 0.03 85 1007.3
20170422091605 84 53 13.0 17.0 0.00 0.03 0.03 84 1007.3
20170422091105 84 57 13.0 18.0 0.00 0.03 0.03 84 1007.2
20170422090605 84 50 16.0 18.0 0.00 0.03 0.03 83 1007.2
20170422090105 84 50 14.0 18.0 0.00 0.03 0.03 84 1007.2
20170422085605 84 58 15.0 18.0 0.00 0.03 0.03 83 1007.2
20170422085105 84 51 15.0 17.0 0.00 0.03 0.03 83 1007.2
20170422084605 84 64 13.0 17.0 0.00 0.03 0.03 83 1007.2
20170422084105 84 33 14.0 17.0 0.00 0.03 0.03 83 1007.1
20170422083605 84 59 15.0 18.0 0.00 0.03 0.03 83 1007.1
20170422083105 84 55 15.0 18.0 0.00 0.03 0.03 83 1007.1
20170422082605 84 54 16.0 17.0 0.00 0.03 0.03 84 1006.8
20170422082112 84 45 12.0 17.0 0.00 0.03 0.03 83 1006.8
20170422081605 84 42 12.0 16.0 0.00 0.03 0.03 83 1006.8
20170422081105 84 41 13.0 17.0 0.00 0.03 0.03 83 1006.6
20170422080605 84 50 16.0 17.0 0.00 0.03 0.03 83 1006.6
20170422080105 84 49 14.0 17.0 0.00 0.03 0.03 83 1006.6
20170422075605 84 46 15.0 16.0 0.00 0.03 0.03 84 1006.3
20170422075105 84 42 14.0 17.0 0.00 0.03 0.03 83 1006.3
20170422074605 84 56 12.0 18.0 0.00 0.03 0.03 82 1006.3
20170422074105 84 42 15.0 18.0 0.00 0.03 0.03 83 1006.1
20170422073605 84 37 12.0 15.0 0.00 0.03 0.03 85 1006.1
20170422073105 84 58 12.0 16.0 0.00 0.03 0.03 83 1006.1
20170422072605 84 51 15.0 16.0 0.00 0.03 0.03 83 1006.1
20170422072107 84 40 12.0 16.0 0.00 0.03 0.03 83 1006.1
20170422071605 84 52 14.0 16.0 0.00 0.03 0.03 83 1006.1
20170422071105 84 37 12.0 16.0 0.00 0.03 0.03 83 1005.8
20170422070605 84 53 14.0 16.0 0.00 0.03 0.03 83 1005.8
20170422070105 84 44 16.0 16.0 0.00 0.03 0.03 83 1005.8
20170422065605 84 38 12.0 15.0 0.00 0.03 0.03 82 1005.7
20170422065105 84 47 13.0 17.0 0.00 0.03 0.03 82 1005.7
20170422064605 84 51 13.0 17.0 0.00 0.03 0.03 82 1005.7
20170422064104 85 52 14.0 17.0 0.00 0.03 0.03 83 1005.7
20170422063605 85 38 15.0 17.0 0.00 0.03 0.03 82 1005.7
20170422063105 85 42 14.0 15.0 0.00 0.03 0.03 82 1005.7
20170422062605 85 48 13.0 16.0 0.00 0.03 0.03 81 1005.7
20170422062105 85 45 13.0 16.0 0.00 0.03 0.03 80 1005.7
20170422061605 85 37 12.0 15.0 0.00 0.03 0.03 81 1005.7
20170422061105 86 45 12.0 15.0 0.00 0.03 0.03 81 1005.8
20170422060605 86 54 14.0 15.0 0.00 0.03 0.03 80 1005.8
20170422060105 86 42 13.0 15.0 0.00 0.03 0.03 79 1005.8
20170422055605 86 51 11.0 14.0 0.00 0.03 0.03 80 1005.9
20170422055104 86 61 13.0 15.0 0.00 0.03 0.03 79 1005.9
20170422054605 85 50 13.0 15.0 0.00 0.03 0.03 80 1005.9
20170422054105 86 49 14.0 14.0 0.00 0.03 0.03 80 1006.0
20170422053605 86 54 12.0 14.0 0.00 0.03 0.03 80 1006.0
20170422053104 86 65 12.0 16.0 0.00 0.03 0.03 80 1006.0